Starlink 35981

operational
NORAD ID: 66598 Int'l Des: 2025-270 Owner: SPXS Country: US Constellation: starlink
LEOCIRCULAR

Starlink 35981について

説明を読み込み中...

リアルタイム位置

3D地球を読み込み中...

次回通過

高度履歴

Altitude vs Time

uPlot chart will show altitude changes over time

軌道要素

1 66598U 25270L 26062.43697503 .00033378 00000-0 12161-2 0 9990
2 66598 43.0034 91.1392 0001903 263.2078 96.8557 15.27602496 16601
Epoch: Mar 3, 2026 • Age: 33 hours

現在のステータス

高度 483.4 km
速度 7.63 km/s
衛星直下点 -6.64°S, 28.49°W
打ち上げ日 Nov 22, 2025
運用期間 0.2 years
タイプ internet

技術仕様

分類 Payload
質量 575.00 kg
乾燥質量 530.00 kg
総質量 575.00 kg
長さ 0.30 m
直径 4.10 m
スパン 29.00 m
形状 Box + pan
製造者 SPXS
バスタイプ Starlink V2MO
フェーズステータス In Orbit
所有者/国 SPXS/US

大規模コンステレーション

Loading constellations...